WZZ1778 EKBI-EPGD

Flight info

Callsign WZZ1778
Flight time 0h 57m
Altitude 37000
Route RIDSI DCT RUMAR L983 DOMAG T240 OGDAV
Aircraft A321/M-SDE1E2E3FGIJ1J4RWXY/LB1

Departure

Time 2025-10-10 08:33
Airport Billund Airport (EKBI)

Arrival

Time 2025-10-10 09:30
Airport Gdańsk Lech Wałęsa Airport (EPGD)
Time Latitude Longitude Altitude Speed Heading
2025-10-10 07:52 55.74522 9.14553 216 ft 0 kts 357°
2025-10-10 08:20 55.74487 9.14554 216 ft 3 kts
2025-10-10 08:20 55.74450 9.14538 219 ft 3 kts 42°
2025-10-10 08:21 55.74441 9.14515 220 ft 0 kts 87°
2025-10-10 08:24 55.74444 9.14625 221 ft 12 kts 87°
2025-10-10 08:25 55.74451 9.14879 216 ft 8 kts 88°
2025-10-10 08:26 55.74388 9.14979 216 ft 2 kts 178°
2025-10-10 08:26 55.74349 9.14983 216 ft 3 kts 176°
2025-10-10 08:26 55.74322 9.14986 216 ft 5 kts 176°
2025-10-10 08:27 55.74237 9.14996 216 ft 8 kts 175°
2025-10-10 08:27 55.74200 9.15160 216 ft 9 kts 86°
2025-10-10 08:28 55.74204 9.15286 216 ft 11 kts 86°
2025-10-10 08:28 55.74218 9.15759 222 ft 15 kts 87°
2025-10-10 08:29 55.74231 9.16125 216 ft 16 kts 86°
2025-10-10 08:30 55.74246 9.16671 216 ft 16 kts 87°
2025-10-10 08:30 55.74252 9.16829 219 ft 12 kts 86°
2025-10-10 08:30 55.74153 9.16912 220 ft 8 kts 175°
2025-10-10 08:31 55.74087 9.16818 216 ft 8 kts 265°
2025-10-10 08:31 55.74040 9.15295 217 ft 129 kts 267°
2025-10-10 08:32 55.73971 9.11465 1170 ft 164 kts 283°
2025-10-10 08:32 55.75807 9.09889 2607 ft 189 kts 15°
2025-10-10 08:33 55.78169 9.13327 3159 ft 255 kts 36°
2025-10-10 08:33 55.80581 9.18121 4886 ft 273 kts 55°
2025-10-10 08:34 55.80570 9.25088 6463 ft 305 kts 111°
2025-10-10 08:34 55.78623 9.31975 7887 ft 317 kts 115°
2025-10-10 08:35 55.76550 9.38965 9444 ft 322 kts 114°
2025-10-10 08:35 55.74473 9.46142 10645 ft 340 kts 112°
2025-10-10 08:36 55.72218 9.54118 11176 ft 377 kts 113°
2025-10-10 08:36 55.69830 9.62495 12383 ft 389 kts 113°
2025-10-10 08:37 55.67337 9.71166 13649 ft 401 kts 113°
2025-10-10 08:37 55.66063 9.75592 14223 ft 406 kts 113°
2025-10-10 08:38 55.62144 9.89161 15970 ft 418 kts 113°
2025-10-10 08:38 55.59627 9.98497 17179 ft 420 kts 103°
2025-10-10 08:39 55.58566 10.08549 18364 ft 417 kts 89°
2025-10-10 08:39 55.57893 10.18796 19422 ft 423 kts 90°
2025-10-10 08:40 55.57539 10.23973 19990 ft 425 kts 90°
2025-10-10 08:40 55.56456 10.39659 21689 ft 433 kts 90°
2025-10-10 08:41 55.56087 10.44955 22231 ft 435 kts 90°
2025-10-10 08:41 55.55339 10.55622 23250 ft 440 kts 91°
2025-10-10 08:42 55.54178 10.71851 24565 ft 448 kts 91°
2025-10-10 08:42 55.53377 10.82812 25334 ft 452 kts 91°
2025-10-10 08:44 55.50443 11.22359 27243 ft 485 kts 91°
2025-10-10 08:46 55.46060 11.77918 28890 ft 517 kts 91°
2025-10-10 08:48 55.42439 12.21531 30911 ft 512 kts 91°
2025-10-10 08:50 55.37603 12.77120 33048 ft 510 kts 91°
2025-10-10 08:52 55.33675 13.20123 34601 ft 508 kts 91°
2025-10-10 08:54 55.28423 13.75176 36279 ft 509 kts 92°
2025-10-10 08:56 55.24347 14.15935 37209 ft 510 kts 92°
2025-10-10 08:58 55.18634 14.71067 37209 ft 513 kts 92°
2025-10-10 09:00 55.13977 15.14076 37222 ft 515 kts 92°
2025-10-10 09:03 55.07055 15.75508 37208 ft 517 kts 93°
2025-10-10 09:04 55.03023 16.17857 36437 ft 480 kts 83°
2025-10-10 09:06 55.01524 16.64011 33178 ft 471 kts 82°
2025-10-10 09:08 54.99894 17.08399 29200 ft 445 kts 83°
2025-10-10 09:10 54.89559 17.46334 24899 ft 427 kts 110°
2025-10-10 09:11 54.86740 17.55405 23977 ft 427 kts 111°
2025-10-10 09:11 54.83900 17.64472 22972 ft 426 kts 111°
2025-10-10 09:12 54.81078 17.73460 21991 ft 423 kts 111°
2025-10-10 09:12 54.78264 17.82380 20996 ft 420 kts 112°
2025-10-10 09:13 54.75458 17.91241 19998 ft 419 kts 112°
2025-10-10 09:14 54.71265 18.04438 18487 ft 416 kts 113°
2025-10-10 09:14 54.69869 18.08824 17936 ft 415 kts 114°
2025-10-10 09:14 54.66970 18.17250 17428 ft 400 kts 125°
2025-10-10 09:15 54.63368 18.24196 16513 ft 378 kts 129°
2025-10-10 09:15 54.59887 18.30846 15469 ft 369 kts 129°
2025-10-10 09:16 54.56472 18.37387 14765 ft 365 kts 130°
2025-10-10 09:16 54.53098 18.43828 14084 ft 360 kts 130°
2025-10-10 09:17 54.49784 18.50121 13341 ft 354 kts 130°
2025-10-10 09:18 54.44904 18.59312 12223 ft 327 kts 131°
2025-10-10 09:18 54.43412 18.62118 11858 ft 311 kts 129°
2025-10-10 09:18 54.41395 18.68408 11082 ft 295 kts 109°
2025-10-10 09:19 54.39802 18.74807 9981 ft 285 kts 110°
2025-10-10 09:19 54.38256 18.80937 8932 ft 274 kts 110°
2025-10-10 09:20 54.36753 18.86923 8352 ft 271 kts 109°
2025-10-10 09:20 54.35275 18.92818 7670 ft 268 kts 110°
2025-10-10 09:21 54.33757 18.98592 6948 ft 266 kts 120°
2025-10-10 09:21 54.32394 19.00670 6598 ft 264 kts 155°
2025-10-10 09:22 54.27419 18.99094 5417 ft 245 kts 216°
2025-10-10 09:22 54.25977 18.94576 4812 ft 208 kts 278°
2025-10-10 09:23 54.26859 18.90230 4489 ft 189 kts 296°
2025-10-10 09:23 54.27891 18.86154 4204 ft 188 kts 296°
2025-10-10 09:24 54.28928 18.82029 3901 ft 186 kts 296°
2025-10-10 09:24 54.29943 18.77988 3620 ft 186 kts 296°
2025-10-10 09:25 54.30960 18.73932 3338 ft 183 kts 296°
2025-10-10 09:26 54.32269 18.68691 2965 ft 142 kts 296°
2025-10-10 09:26 54.32650 18.67167 2806 ft 138 kts 296°
2025-10-10 09:26 54.33394 18.64190 2453 ft 134 kts 295°
2025-10-10 09:27 54.34106 18.61334 2089 ft 130 kts 295°
2025-10-10 09:27 54.34807 18.58517 1733 ft 128 kts 294°
2025-10-10 09:28 54.35502 18.55720 1368 ft 127 kts 295°
2025-10-10 09:28 54.36188 18.52941 993 ft 127 kts 294°
2025-10-10 09:29 54.36877 18.50160 635 ft 125 kts 294°
2025-10-10 09:30 54.37646 18.47085 459 ft 36 kts 296°
2025-10-10 09:30 54.37761 18.46824 457 ft 16 kts 319°
2025-10-10 09:30 54.37835 18.46727 458 ft 0 kts 323°
2025-10-10 09:31 54.37841 18.46719 458 ft 2 kts 323°
2025-10-10 09:31 54.37873 18.46678 459 ft 4 kts 323°
2025-10-10 09:32 54.37927 18.46609 459 ft 2 kts 323°
2025-10-10 09:32 54.37976 18.46567 460 ft 3 kts 346°
2025-10-10 09:33 54.38016 18.46607 458 ft 5 kts 26°
2025-10-10 09:34 54.38063 18.46597 460 ft 4 kts 339°
2025-10-10 09:34 54.38077 18.46598 460 ft 0 kts 22°
2025-10-10 09:34 54.38104 18.46611 460 ft 0 kts 21°
2025-10-10 09:35 54.38112 18.46617 460 ft 0 kts 22°